When you browse on this site, cookies collect data to enhance your experience and personalize the content and advertising you see.
Visit our Privacy Policy to learn more. By continuing to use the site, you agree to this use of cookies and data.
EN

Hourly Weather Tyrnyauz

Today, 4 August, Tuesday

Time Temperature Precipitation Wind Pressure Humidity
00:00 +8°C° 0 mm 1 mps 596 mmHg 90%
01:00 +7°C° 0 mm 1 mps 595 mmHg 88%
02:00 +6°C° 0 mm 1 mps 595 mmHg 85%
03:00 +6°C° 0 mm 1 mps 594 mmHg 89%
04:00 +7°C° 0 mm 1 mps 595 mmHg 86%
05:00 +7°C° 0 mm 1 mps 595 mmHg 84%
06:00 +8°C° 0 mm 1 mps 595 mmHg 82%
07:00 +10°C° 0 mm 1 mps 596 mmHg 76%
08:00 +12°C° 0 mm 1 mps 597 mmHg 71%
09:00 +13°C° 0 mm 1 mps 598 mmHg 66%
10:00 +14°C° 0 mm 2 mps 598 mmHg 66%
11:00 +15°C° 0 mm 2 mps 598 mmHg 65%
12:00 +16°C° 0 mm 3 mps 598 mmHg 64%
13:00 +16°C° 0 mm 2 mps 598 mmHg 69%
14:00 +16°C° 0 mm 2 mps 598 mmHg 73%
15:00 +15°C° 0 mm 2 mps 597 mmHg 80%
16:00 +15°C° 0 mm 2 mps 597 mmHg 83%
17:00 +14°C° 0 mm 2 mps 597 mmHg 87%
18:00 +13°C° 0 mm 2 mps 597 mmHg 90%
19:00 +12°C° 0 mm 1 mps 596 mmHg 91%
20:00 +12°C° 0 mm 1 mps 596 mmHg 92%
21:00 +11°C° 0 mm 1 mps 596 mmHg 93%
22:00 +9°C° 0 mm 1 mps 595 mmHg 91%
23:00 +8°C° 0 mm 1 mps 594 mmHg 88%

Tomorrow, 5 August, Wednesday

Time Temperature Precipitation Wind Pressure Humidity
00:00 +6°C° 0 mm 0 mps 594 mmHg 85%
01:00 +7°C° 0 mm 1 mps 593 mmHg 80%
02:00 +7°C° 0 mm 1 mps 593 mmHg 74%
03:00 +6°C° 0 mm 1 mps 593 mmHg 69%
04:00 +7°C° 0 mm 1 mps 593 mmHg 65%
05:00 +8°C° 0 mm 1 mps 593 mmHg 61%
06:00 +7°C° 0 mm 2 mps 594 mmHg 57%
07:00 +10°C° 0 mm 2 mps 595 mmHg 55%
08:00 +13°C° 0 mm 2 mps 595 mmHg 53%
09:00 +15°C° 0 mm 2 mps 596 mmHg 51%
10:00 +16°C° 0 mm 2 mps 597 mmHg 53%
11:00 +16°C° 0 mm 2 mps 597 mmHg 55%
12:00 +17°C° 0 mm 3 mps 597 mmHg 57%
13:00 +17°C° 0 mm 3 mps 597 mmHg 61%
14:00 +17°C° 0 mm 3 mps 597 mmHg 65%
15:00 +17°C° 0 mm 2 mps 597 mmHg 70%
16:00 +15°C° 0 mm 2 mps 596 mmHg 76%
17:00 +14°C° 0 mm 2 mps 596 mmHg 82%
18:00 +13°C° 0 mm 2 mps 596 mmHg 88%
19:00 +12°C° 0 mm 1 mps 596 mmHg 89%
20:00 +11°C° 0 mm 1 mps 595 mmHg 91%
21:00 +10°C° 0 mm 1 mps 595 mmHg 92%
22:00 +9°C° 0 mm 1 mps 595 mmHg 90%
23:00 +8°C° 0 mm 1 mps 594 mmHg 89%

Day after tomorrow, 6 August, Thursday

Time Temperature Precipitation Wind Pressure Humidity
00:00 +7°C° 0 mm 1 mps 594 mmHg 87%
01:00 +7°C° 0 mm 1 mps 594 mmHg 86%
02:00 +7°C° 0 mm 1 mps 593 mmHg 85%
03:00 +6°C° 0 mm 1 mps 593 mmHg 84%
04:00 +7°C° 0 mm 1 mps 594 mmHg 83%
05:00 +8°C° 0 mm 1 mps 594 mmHg 83%
06:00 +8°C° 0 mm 1 mps 595 mmHg 82%
07:00 +11°C° 0 mm 1 mps 596 mmHg 76%
08:00 +13°C° 0 mm 2 mps 597 mmHg 70%
09:00 +15°C° 0 mm 2 mps 598 mmHg 64%
10:00 +16°C° 0 mm 2 mps 598 mmHg 66%
11:00 +16°C° 0 mm 2 mps 598 mmHg 67%
12:00 +17°C° 0 mm 3 mps 599 mmHg 69%
13:00 +16°C° 0.1 mm 3 mps 598 mmHg 74%
14:00 +16°C° 0.1 mm 2 mps 598 mmHg 79%
15:00 +15°C° 0.1 mm 2 mps 598 mmHg 83%
16:00 +15°C° 0.2 mm 2 mps 598 mmHg 86%
17:00 +14°C° 0.2 mm 2 mps 598 mmHg 88%
18:00 +14°C° 0.2 mm 2 mps 598 mmHg 90%
19:00 +13°C° 0 mm 2 mps 598 mmHg 91%
20:00 +12°C° 0 mm 1 mps 597 mmHg 93%
21:00 +11°C° 0 mm 1 mps 597 mmHg 94%
22:00 +10°C° 0 mm 1 mps 597 mmHg 90%
23:00 +8°C° 0 mm 2 mps 596 mmHg 87%

7 August, Friday

Time Temperature Precipitation Wind Pressure Humidity
00:00 +7°C° 0 mm 2 mps 596 mmHg 83%
01:00 +7°C° 0 mm 2 mps 596 mmHg 80%
02:00 +7°C° 0 mm 2 mps 595 mmHg 77%
03:00 +7°C° 0 mm 2 mps 595 mmHg 73%
04:00 +7°C° 0 mm 2 mps 596 mmHg 74%
05:00 +8°C° 0 mm 2 mps 596 mmHg 74%
06:00 +8°C° 0 mm 2 mps 596 mmHg 74%
07:00 +12°C° 0 mm 2 mps 597 mmHg 69%
08:00 +14°C° 0 mm 2 mps 598 mmHg 65%
09:00 +16°C° 0 mm 2 mps 599 mmHg 60%
10:00 +17°C° 0 mm 2 mps 599 mmHg 60%
11:00 +18°C° 0 mm 3 mps 600 mmHg 60%
12:00 +19°C° 0 mm 3 mps 600 mmHg 60%
13:00 +18°C° 0 mm 3 mps 600 mmHg 64%
14:00 +18°C° 0 mm 3 mps 599 mmHg 67%
15:00 +18°C° 0 mm 3 mps 599 mmHg 71%
16:00 +17°C° 0.1 mm 2 mps 599 mmHg 75%
17:00 +17°C° 0.1 mm 2 mps 598 mmHg 80%
18:00 +16°C° 0.1 mm 2 mps 598 mmHg 85%
19:00 +15°C° 0 mm 1 mps 598 mmHg 87%
20:00 +13°C° 0 mm 1 mps 597 mmHg 88%
21:00 +12°C° 0 mm 1 mps 597 mmHg 90%
22:00 +11°C° 0 mm 1 mps 596 mmHg 89%
23:00 +11°C° 0 mm 1 mps 596 mmHg 88%

8 August, Saturday

Time Temperature Precipitation Wind Pressure Humidity
00:00 +10°C° 0 mm 1 mps 595 mmHg 88%
01:00 +10°C° 0 mm 1 mps 595 mmHg 86%
02:00 +10°C° 0 mm 1 mps 595 mmHg 85%
03:00 +9°C° 0 mm 1 mps 594 mmHg 84%
04:00 +10°C° 0 mm 1 mps 594 mmHg 82%
05:00 +10°C° 0 mm 1 mps 595 mmHg 81%
06:00 +11°C° 0 mm 1 mps 595 mmHg 79%
07:00 +13°C° 0 mm 1 mps 595 mmHg 72%
08:00 +15°C° 0 mm 1 mps 596 mmHg 65%
09:00 +19°C° 0 mm 1 mps 597 mmHg 58%
10:00 +18°C° 0 mm 2 mps 597 mmHg 58%
11:00 +19°C° 0 mm 2 mps 597 mmHg 58%
12:00 +20°C° 0 mm 3 mps 597 mmHg 58%
13:00 +20°C° 0 mm 2 mps 597 mmHg 61%
14:00 +20°C° 0 mm 2 mps 597 mmHg 63%
15:00 +20°C° 0 mm 2 mps 596 mmHg 66%
16:00 +19°C° 0 mm 2 mps 596 mmHg 70%
17:00 +18°C° 0 mm 2 mps 595 mmHg 75%
18:00 +18°C° 0 mm 1 mps 595 mmHg 79%
19:00 +15°C° 0 mm 1 mps 594 mmHg 82%
20:00 +13°C° 0 mm 1 mps 593 mmHg 85%
21:00 +12°C° 0 mm 1 mps 593 mmHg 88%
22:00 +11°C° 0 mm 1 mps 592 mmHg 86%
23:00 +11°C° 0 mm 1 mps 592 mmHg 84%

9 August, Sunday

Time Temperature Precipitation Wind Pressure Humidity
00:00 +10°C° 0 mm 2 mps 592 mmHg 82%
01:00 +9°C° 0 mm 2 mps 591 mmHg 74%
02:00 +9°C° 0 mm 2 mps 591 mmHg 66%
03:00 +9°C° 0 mm 2 mps 591 mmHg 58%
04:00 +9°C° 0 mm 2 mps 591 mmHg 57%
05:00 +10°C° 0 mm 2 mps 591 mmHg 56%
06:00 +11°C° 0 mm 1 mps 591 mmHg 56%
07:00 +14°C° 0 mm 1 mps 592 mmHg 55%
08:00 +16°C° 0 mm 1 mps 593 mmHg 54%
09:00 +19°C° 0 mm 2 mps 594 mmHg 53%
10:00 +19°C° 0.1 mm 2 mps 594 mmHg 55%
11:00 +20°C° 0.1 mm 2 mps 595 mmHg 58%
12:00 +20°C° 0.1 mm 3 mps 595 mmHg 60%
13:00 +20°C° 0.4 mm 3 mps 594 mmHg 62%
14:00 +20°C° 0.4 mm 2 mps 594 mmHg 65%
15:00 +20°C° 0.4 mm 2 mps 594 mmHg 68%
16:00 +19°C° 0.6 mm 2 mps 594 mmHg 72%
17:00 +18°C° 0.6 mm 2 mps 594 mmHg 76%
18:00 +18°C° 0.6 mm 2 mps 594 mmHg 80%
19:00 +16°C° 0.1 mm 2 mps 593 mmHg 82%
20:00 +14°C° 0.1 mm 1 mps 592 mmHg 84%
21:00 +12°C° 0.1 mm 1 mps 592 mmHg 85%
22:00 +12°C° 0 mm 2 mps 592 mmHg 82%
23:00 +12°C° 0 mm 2 mps 592 mmHg 78%
Show more